User: anonymous   Login
Location: Caltech
(34.1382°N, 118.1253°W)
Time: 16:34:13
(UTC-07:00)
Language:

Cosmos 1833 - Orbit

View from above orbital plane
View from above orbital plane
View from above satellite
View from above satellite

Ground track
Ground track

The orbit data is extracted from the following two-line orbital elements,

1 17589U 87027A   15108.81132978 -.00000063  00000-0 -79466-5 0  9996
2 17589 070.9133 045.6541 0011941 062.8830 328.0308 14.12825565448675
Epoch (UTC): 18 April 2015 19:28:18
Eccentricity: 0.0011941
inclination: 70.9133°
perigee height: 841 km
apogee height: 858 km
right ascension of ascending node: 45.6541°
argument of perigee: 62.8830°
revolutions per day: 14.12825565
mean anomaly at epoch: 328.0308°
orbit number at epoch: 44867

The dashed part of the orbit path shows where the satellite is in the earth's shadow,  

DLR